Погода в Фокино

Россия / Брянская область     53°27′19″N   34°24′57″E
темп.,
°C
ветер,
м/с
пор.,
м/с
влажн.,
%
обл.,
%
осадки,
мм/ч
давл.,
гПа
погр.,
м
21 октября, чт
чт2100:00+8юз71883100 0.3 1010895
03:00+9юз61775100 0.3 1008660
06:00+9юз61775100 0.0 1006625
09:00+10юз61773100 0.0 1005702
12:00+12юз61566100 0.0 1005802
15:00+14юз6146154 0.0 1004832
18:00+12ююз6166867 0.0 1002730
21:00+12ююз71768100 0.0 1001895
22 октября, пт
пт2200:00+12юз71660100 0.0 999862
03:00+12юз6146522 0.0 9991054
06:00+12юз7137494 0.0 9991103
09:00+11зюз7137698 0.3 10011199
12:00+11зюз8146279 0.1 10041695
15:00+12зюз714555 0.1 10051816
18:00+9зюз511625 0.0 10071022
21:00+7зюз512635 0.0 10081064
23 октября, сб
сб2300:00+6юз51370100 0.0 1007695
03:00+6юз51363100 0.0 1007830
06:00+5юз513685 0.0 1007682
09:00+6юз6137592 0.0 10071167
12:00+6зюз51079100 0.1 10081005
15:00+7зюз6117467 1.8 10091378
18:00+5зюз5117739 0.2 1011674
21:00+3зюз512885 0.2 1013650
24 октября, вс
вс2400:00+4зюз51285100 0.0 1013659
03:00+4з488762 0.1 1013851
06:00+4з4986100 0.2 1014961
09:00+2зсз499281 0.6 1015685
12:00+2з41096100 0.4 1016600
15:00+2сз51296100 1.3 1017625
18:00+2ссз6127789 0.3 10201058
21:00+1ссз51184100 0.3 10231030
25 октября, пн
пн2500:00+1с5973100 0.1 10251144
03:00+1с487895 0.1 1027999
06:000с4770100 0.0 1030990
09:000с37765 0.0 1032569
12:00+2с34629 0.0 1034836
15:00+4с235445 0.0 1034964
18:000с11720 0.0 103510
21:00−1ююв11751 0.0 103510